Westfield, MA

7:31 PM EST on February 13, 2016 (GMT -0500)
Barnes Municipal

Weather History for KBAF - February, 2012

Change the Weather History Date:

Wednesday, February 15, 2012

  Actual Average Record
Temperature  
Mean Temperature 38 °F -  
Max Temperature 46 °F 34 °F 53 °F (2006)
Min Temperature 30 °F 16 °F -2 °F (2015)
Degree Days  
Heating Degree Days 27    
Moisture  
Dew Point 27 °F    
Average Humidity 66    
Maximum Humidity 82    
Minimum Humidity 51    
Precipitation  
Precipitation 0.00 in - - ()
Sea Level Pressure  
Sea Level Pressure 30.17 in    
Wind  
Wind Speed 2 mph (NW)    
Max Wind Speed 12 mph    
Max Gust Speed -    
Visibility 10 miles    
Events      
Averages and records for this station are not official NWS values.
T = Trace of Precipitation, MM = Missing Value Source: NWS Daily Summary

Daily Weather History Graph

Daily Weather History Graph

Search for Another Location

Airport or City:

Trip Planner

Search our weather history database for the weather conditions in past years. The results will help you decide how hot, cold, wet, or windy it might be!

Date:

Astronomy

Feb. 15, 2012 Rise Set
Actual Time 6:47 AM EST 5:22 PM EST
Civil Twilight 6:19 AM EST 5:51 PM EST
Nautical Twilight 5:46 AM EST 6:24 PM EST
Astronomical Twilight 5:13 AM EST 6:56 PM EST
Moon 1:41 AM EST (2/15) 11:12 AM EST (2/15)
Length of Visible Light 11h 32m
Length of Day
10h 35m
Last Quarter, 39% of the Moon is Illuminated
Feb 15
Last Quarter
Feb 21
New
Feb 29
First Quarter
Mar 8
Full
Mar 14
Last Quarter

Hourly Weather History & Observations

Time (EST) Temp. Windchill Dew Point Humidity Pressure Visibility Wind Dir Wind Speed Gust Speed Precip Events Conditions
12:53 AM 33.1 °F - 21.0 °F 61% 30.09 in 10.0 mi Calm Calm - 0.00 in   Overcast
1:53 AM 32.0 °F - 23.0 °F 69% 30.10 in 10.0 mi Calm Calm - 0.00 in   Overcast
2:53 AM 32.0 °F - 25.0 °F 75% 30.09 in 10.0 mi Calm Calm - 0.00 in   Overcast
3:00 AM 32.0 °F - 24.8 °F 75% 30.07 in 10.0 mi Calm Calm - N/A   Overcast
3:53 AM 30.9 °F - 25.0 °F 79% 30.09 in 10.0 mi Calm Calm - N/A   Overcast
4:53 AM 32.0 °F - 24.1 °F 73% 30.11 in 10.0 mi Calm Calm - N/A   Overcast
5:53 AM 30.9 °F - 26.1 °F 82% 30.12 in 10.0 mi Calm Calm - N/A   Overcast
6:53 AM 32.0 °F - 26.1 °F 79% 30.13 in 10.0 mi Calm Calm - N/A   Overcast
7:53 AM 33.1 °F - 25.0 °F 72% 30.16 in 10.0 mi Calm Calm - N/A   Overcast
8:53 AM 35.1 °F - 25.0 °F 67% 30.16 in 10.0 mi Calm Calm - N/A   Mostly Cloudy
9:27 AM 37.4 °F - 26.6 °F 65% 30.15 in 10.0 mi Calm Calm - N/A   Overcast
9:53 AM 39.0 °F - 28.0 °F 65% 30.17 in 10.0 mi Calm Calm - N/A   Mostly Cloudy
10:53 AM 41.0 °F 39.0 °F 30.0 °F 65% 30.17 in 10.0 mi WSW 3.5 mph - N/A   Overcast
11:53 AM 43.0 °F - 30.0 °F 60% 30.17 in 10.0 mi Calm Calm - N/A   Overcast
12:53 PM 44.1 °F - 30.0 °F 58% 30.16 in 10.0 mi Calm Calm - N/A   Overcast
1:53 PM 44.1 °F - 30.0 °F 58% 30.16 in 10.0 mi Calm Calm - N/A   Overcast
2:53 PM 46.0 °F - 30.0 °F 54% 30.16 in 10.0 mi Calm Calm - N/A   Overcast
3:53 PM 46.0 °F 40.6 °F 28.9 °F 51% 30.17 in 10.0 mi WNW 11.5 mph - N/A   Mostly Cloudy
4:53 PM 44.1 °F 39.5 °F 28.9 °F 55% 30.19 in 10.0 mi NW 8.1 mph - N/A   Overcast
5:53 PM 42.1 °F 37.1 °F 28.9 °F 60% 30.20 in 10.0 mi NW 8.1 mph - N/A   Mostly Cloudy
6:53 PM 39.9 °F 35.8 °F 28.0 °F 63% 30.24 in 10.0 mi NW 5.8 mph - N/A   Overcast
7:53 PM 39.0 °F 35.7 °F 27.0 °F 62% 30.26 in 10.0 mi NW 4.6 mph - N/A   Mostly Cloudy
8:53 PM 37.9 °F 31.5 °F 26.1 °F 62% 30.27 in 10.0 mi WNW 9.2 mph - N/A   Partly Cloudy
9:53 PM 36.0 °F 30.3 °F 26.1 °F 67% 30.27 in 10.0 mi WNW 6.9 mph - N/A   Clear
10:53 PM 37.0 °F 30.4 °F 26.1 °F 65% 30.27 in 10.0 mi NW 9.2 mph - N/A   Clear
11:53 PM 35.1 °F 32.2 °F 25.0 °F 67% 30.27 in 10.0 mi NNE 3.5 mph - N/A   Clear